www.pogodaiklimat.ru

Погода и климат >> Архив погоды >> Боливия >> Сан-Хавьер


ПОГОДА в Сан-Хавьере

  • Прогноз погоды в Сан-Хавьере
  • Монитор погоды в Сан-Хавьере

АРХИВ ПОГОДЫ в Сан-Хавьере

Время (UTC), дата Ветер
(напр.,м/с)
 
Видим.   Явления Облачность Т
(С)
Тd
(С)
f
(%)
Тe
(С)
Тes
(С)
Комфортность P
(гПа)
Po
(гПа)
Тmin
(С)
Tmax
(С)
R
(мм)
R24
(мм)
S
(см)
12 15.08 штиль 0 20 км дым 5/0
[Ci fib]
+15.0 +3.4 46 +15 +19 1017.5 957.0 +12.0
15 15.08 Ю 2 7000 м дым 9/0
[Ci sp]
+23.0 +6.2 34 +24 +36 комфорт 1018.5 958.0
18 15.08 штиль 0 5000 м дым 6/0
[Ci]
+28.0 +10.0 32 +28 +44 жарко 1015.3 955.4
21 15.08 С 3 5000 м дым 6/0
[Ci]
+28.2 +13.5 40 +30 +31 жарко 1013.6 953.6 +31.1
12 16.08 штиль 0 5000 м дым 5/0
[Ci]
+17.4 +9.8 61 +17 +21 1015.0 955.4 +13.3
15 16.08 штиль 0 5000 м дым ясно +29.0 +15.5 44 +32 +53 опасность
солнечного
удара
1016.0 956.0
18 16.08 С 8 6000 м дым ясно +33.5 +13.3 29 +34 +37 очень
жарко
1013.5 953.0
21 16.08 С 6 6000 м дым ясно +30.5 +14.1 37 +32 +33 жарко 1011.2 951.0 +33.0
12 17.08 С 3 5000 м дым ясно +19.0 +15.9 82 +21 +23 комфорт 1011.6 951.0 +16.5
15 17.08 С 8 3000 м дым ясно +28.0 +16.1 48 +31 +34 душно 1012.6 952.5
18 17.08 С 9 5000 м дым ясно +31.5 +15.9 39 +34 +35 душно 1010.0 950.0
21 17.08 С 9 3000 м дым ясно +30.0 +16.4 44 +33 +33 душно 1008.3 948.3 +32.9
12 18.08 штиль 0 4000 м дым ясно +20.0 +17.0 83 +23 +27 комфорт 1013.4 953.4 +17.1
15 18.08 С 6 2000 м дым ясно +29.5 +17.9 50 +34 +40 очень
душно
1014.3 954.4
18 18.08 С 7 3000 м дым ясно +32.3 +20.4 50 +39 +43 очень
душно
1013.0 953.0
21 18.08 С 6 5000 м дым ясно +30.5 +20.3 55 +37 +38 очень
душно
1011.2 951.2 +33.5
12 19.08 Ю 3 3000 м дым 8/3 600 м
[Sc Ci]
+19.0 +14.1 73 +20 +22 1017.0 1056.5 +17.0
15 19.08 Ю 7 8000 м дым 8/0 2000 м
[Ac trans]
+23.0 +10.5 45 +25 +27 комфорт 1018.5 958.0
18 19.08 Ю 5 8000 м дым 8/0
[Ci]
+25.5 +10.8 40 +27 +32 жарко 1014.0 954.0
21 19.08 Ю 6 8000 м дым 6/6 700 м
[Sc]
+26.2 +13.8 46 +28 +29 жарко 1013.0 953.0 +28.1
12 20.08 Ю 3 8000 м дым ясно +16.2 +8.2 59 +16 +18 1017.6 957.6 +13.1
15 20.08 Ю 5 8000 м дым ясно +23.2 +11.4 47 +25 +33 комфорт 1018.7 958.8
18 20.08 Ю 4 7000 м дым ясно +27.5 +12.5 39 +29 +38 жарко 1016.5 956.0
21 20.08 Ю 3 6000 м дым ясно +27.0 +12.9 42 +29 +30 жарко 1015.5 955.0 +28.5
12 21.08 Ю 3 8000 м дым ясно +16.0 +6.9 55 +16 +19 1019.5 959.0 +14.0
15 21.08 Ю 4 8000 м дым ясно +23.5 +10.0 42 +25 +35 комфорт 1020.0 959.5
18 21.08 Ю 3 6000 м дым ясно +28.0 +14.1 43 +30 +42 жарко 1016.5 956.0
21 21.08 штиль 0 5000 м дым ясно +29.0 +14.5 41 +31 +33 жарко 1014.0 954.0 +30.0

 

Местоположение метеостанции Сан-Хавьер (Боливия): широта -16.26 долгота -62.46 высота над уровнем моря 534 м.

В архиве по умолчанию представлена погода в Сан-Хавьере за последнюю неделю. Архивные данные за месяц целиком и за предыдущие месяцы, начиная с января 2011 года, Вы можете получить, выбрав интересующий диапазон дат из раскрывающегося списка и нажав кнопку "Ввод!".


*Определитесь, кто Вы:
робот инопланетянин человек

Внимание! Время в таблицах - всемирное. Для получения местного времени необходимо прибавить поправку, которая равна -4 ч.

Смотрите также архив погоды в соседних городах и на ближайших метеорологических станциях:

Погода в Консепсьоне (Боливия) (50 км)
Погода в Ассенсьон де Гуарае (Боливия) (92 км)
Погода в Сан-Игнасио (Боливия) (161 км)
Погода в Виру-Виру (Боливия) (168 км)
Погода в Санта-Крусе (Боливия) (188 км)
Погода в Сан Хосе де Чикитосе (Боливия) (251 км)
Погода в Валье Гранде (Боливия) (300 км)
Погода на Ферме Vila Bela da S Trind (Мату-Гросу, Бразилия) (307 км)
Погода в Тринидаде (Боливия) (308 км)
Погода в Понтис-и-Ласерде (Мату-Гросу, Бразилия) (351 км)

Пояснения к столбцам:

Ветер - указаны скорость ветра в м/с - средняя за 10 мин, порывы в срок и между сроками (в фигурных скобках) и направление, откуда дует ветер: С - северный, СВ - северо-восточный, В - восточный, ЮВ - юго-восточный, Ю - южный, ЮЗ - юго-западный, З - западный, СЗ - северо-западный.
Видимость - горизонтальная дальность видимости в метрах или километрах. При видимости от 1 до 10 км при отсутствии осадков обычно наблюдается дымка, при ухудшении видимости до 1 км и менее - туман. В сухую погоду видимость может ухудшаться дымом, пылью или мглою.
Явления - указаны атмосферные явления, наблюдавшиеся в срок или в последний час перед сроком; фигурными скобками обозначены явления, наблюдавшиеся между сроками (за 1-3 часа до срока); квадратными скобками обозначены град или гололедные отложения с указанием их диаметра в мм.
Облачность - указаны через наклонную черту общая и нижняя облачность в баллах и высота нижней границы облаков в метрах; квадратными скобками обозначены формы облаков: Ci - перистые, Cs - перисто-слоистые, Cc - перисто-кучевые, Ac - высококучевые, As - высокослоистые, Sc - слоисто-кучевые, Ns - слоисто-дождевые, Cu - кучевые, Cb - кучево-дождевые. Подробнее классификацию облаков см. в Атласе облаков (PDF).
T - Температура воздуха - температура, измеренная на высоте 2 м над землей.
Td - Температура точки росы - температура, при понижении до которой содержащийся в воздухе водяной пар достигнет насыщения.
f - Относительная влажность воздуха - влажноcть воздуха, измеренная на высоте 2 м над землей.
Te - Эффективная температура - температура, которую ощущает одетый по сезону человек в тени. Характеристика душности погоды. При расчете учитывается влияние влажности воздуха и скорости ветра на теплоощущения человека.
Tes - Эффективная температура на солнце - температура, которую ощущает человек, с поправкой на солнечный нагрев. Характеристика знойности погоды. Зависит от высоты солнца над горизонтом, облачности и скорости ветра. Ночью, в пасмурную погоду, а также при ветре 12 м/с и более поправка равна нулю.
P - Атмосферное давление - приведенное к уровню моря атмосферное давление.
Po - Атмосферное давление - измеренное на уровне метеостанции атмосферное давление.
Tmin - Минимальная температура - минимум температуры воздуха на высоте 2 м над землей.
Tmax - Максимальная температура - максимум температуры воздуха на высоте 2 м над землей.
R - Количество осадков - Количество выпавших осадков за период времени, мм. При наведении курсора мыши на число - период времени, за который выпало указанное количество осадков.
R24 - Количество осадков - Количество выпавших осадков за 24 часа, мм.
S - Снежный покров - Высота снежного покрова, см. При наведении курсора мыши на число - состояние снежного покрова и степень покрытия местности в баллах.